Time,TemperatureF,DewpointF,PressureIn,WindDirection,WindDirectionDegrees,WindSpeedMPH,WindSpeedGustMPH,Humidity,HourlyPrecipIn,Conditions,Clouds,dailyrainin,SoftwareType,DateUTC
2013-03-31 00:02:00,54.0,52.0,30.03,WNW,296,0.0,-999.0,93,-99.99,,,-99.99,,2013-03-31 07:02:00,
2013-03-31 00:12:00,54.0,52.0,30.03,WNW,296,0.0,-999.0,93,-99.99,,,-99.99,,2013-03-31 07:12:00,
2013-03-31 00:22:00,54.0,52.0,30.02,WNW,296,0.0,-999.0,93,-99.99,,,-99.99,,2013-03-31 07:22:00,
2013-03-31 00:32:00,54.0,52.0,30.02,WNW,296,0.0,-999.0,94,-99.99,,,-99.99,,2013-03-31 07:32:00,
2013-03-31 00:42:00,54.0,52.0,30.02,WNW,296,0.0,-999.0,94,-99.99,,,-99.99,,2013-03-31 07:42:00,
2013-03-31 00:52:00,54.0,52.0,30.02,WNW,296,0.0,-999.0,94,-99.99,,,-99.99,,2013-03-31 07:52:00,
2013-03-31 01:02:00,54.0,52.0,30.02,WNW,296,0.0,-999.0,94,-99.99,,,-99.99,,2013-03-31 08:02:00,
2013-03-31 01:12:00,54.0,52.0,30.02,WNW,296,0.0,-999.0,94,-99.99,,,-99.99,,2013-03-31 08:12:00,
2013-03-31 01:22:00,54.0,52.0,30.02,WNW,296,0.0,-999.0,94,-99.99,,,-99.99,,2013-03-31 08:22:00,
2013-03-31 01:32:00,54.0,52.0,30.01,WNW,296,0.0,-999.0,94,-99.99,,,-99.99,,2013-03-31 08:32:00,
2013-03-31 01:42:00,54.0,52.0,30.01,WNW,296,0.0,-999.0,94,-99.99,,,-99.99,,2013-03-31 08:42:00,
2013-03-31 01:52:00,54.0,52.0,30.01,WNW,296,0.0,-999.0,94,-99.99,,,-99.99,,2013-03-31 08:52:00,
2013-03-31 02:01:00,54.0,52.0,30.01,WNW,296,0.0,-999.0,94,-99.99,,,-99.99,,2013-03-31 09:01:00,
2013-03-31 02:12:00,54.0,52.0,30.01,WNW,296,0.0,-999.0,94,-99.99,,,-99.99,,2013-03-31 09:12:00,
2013-03-31 02:21:00,54.0,52.0,30.01,WNW,296,0.0,-999.0,94,-99.99,,,-99.99,,2013-03-31 09:21:00,
2013-03-31 02:32:00,54.0,52.0,30.00,WNW,296,0.0,-999.0,94,-99.99,,,-99.99,,2013-03-31 09:32:00,
2013-03-31 02:42:00,54.0,52.0,30.00,WNW,296,0.0,-999.0,94,-99.99,,,-99.99,,2013-03-31 09:42:00,
2013-03-31 02:52:00,54.0,52.0,30.01,WNW,296,0.0,-999.0,94,-99.99,,,-99.99,,2013-03-31 09:52:00,
2013-03-31 03:03:00,54.0,52.0,30.01,WNW,296,0.0,-999.0,94,-99.99,,,-99.99,,2013-03-31 10:03:00,
2013-03-31 03:12:00,54.0,52.0,30.01,WNW,296,0.0,-999.0,94,-99.99,,,-99.99,,2013-03-31 10:12:00,
2013-03-31 03:23:00,54.0,52.0,30.01,WNW,292,0.0,-999.0,94,-99.99,,,-99.99,,2013-03-31 10:23:00,
2013-03-31 03:32:00,54.0,52.0,30.02,WNW,292,0.0,-999.0,94,-99.99,,,-99.99,,2013-03-31 10:32:00,
2013-03-31 03:42:00,54.0,52.0,30.02,WNW,292,0.0,-999.0,94,-99.99,,,-99.99,,2013-03-31 10:42:00,
2013-03-31 03:52:00,54.0,52.0,30.02,WNW,292,0.0,-999.0,94,-99.99,,,-99.99,,2013-03-31 10:52:00,
2013-03-31 04:02:00,54.0,52.0,30.03,ESE,123,2.0,-999.0,94,-99.99,,,-99.99,,2013-03-31 11:02:00,
2013-03-31 04:12:00,54.0,52.0,30.03,ESE,123,2.0,-999.0,94,-99.99,,,-99.99,,2013-03-31 11:12:00,
2013-03-31 04:22:00,53.0,51.0,30.03,ESE,122,0.0,-999.0,94,-99.99,,,-99.99,,2013-03-31 11:22:00,
2013-03-31 04:32:00,53.0,51.0,30.03,SE,124,0.0,-999.0,94,-99.99,,,-99.99,,2013-03-31 11:32:00,
2013-03-31 04:52:00,53.0,51.0,30.03,SE,124,0.0,-999.0,94,-99.99,,,-99.99,,2013-03-31 11:52:00,
2013-03-31 05:02:00,53.0,51.0,30.03,SE,124,0.0,-999.0,94,-99.99,,,-99.99,,2013-03-31 12:02:00,
2013-03-31 05:12:00,53.0,51.0,30.03,SE,124,0.0,-999.0,94,-99.99,,,-99.99,,2013-03-31 12:12:00,
2013-03-31 05:22:00,53.0,51.0,30.03,SE,124,0.0,-999.0,94,-99.99,,,-99.99,,2013-03-31 12:22:00,
2013-03-31 05:32:00,53.0,51.0,30.02,SE,124,0.0,-999.0,94,-99.99,,,-99.99,,2013-03-31 12:32:00,
2013-03-31 05:42:00,53.0,51.0,30.02,SE,124,0.0,-999.0,94,-99.99,,,-99.99,,2013-03-31 12:42:00,
2013-03-31 05:52:00,52.0,50.0,30.02,SE,124,0.0,-999.0,94,-99.99,,,-99.99,,2013-03-31 12:52:00,
2013-03-31 06:02:00,52.0,50.0,30.03,SE,124,0.0,-999.0,94,-99.99,,,-99.99,,2013-03-31 13:02:00,
2013-03-31 06:12:00,52.0,50.0,30.03,SE,124,0.0,-999.0,94,-99.99,,,-99.99,,2013-03-31 13:12:00,
2013-03-31 06:22:00,52.0,51.0,30.03,SE,124,0.0,-999.0,95,-99.99,,,-99.99,,2013-03-31 13:22:00,
2013-03-31 06:32:00,52.0,51.0,30.03,SE,124,0.0,-999.0,95,-99.99,,,-99.99,,2013-03-31 13:32:00,
2013-03-31 06:42:00,52.0,51.0,30.03,SE,124,0.0,-999.0,95,-99.99,,,-99.99,,2013-03-31 13:42:00,
2013-03-31 06:52:00,52.0,51.0,30.04,SE,124,0.0,-999.0,95,-99.99,,,-99.99,,2013-03-31 13:52:00,
2013-03-31 07:02:00,52.0,51.0,30.04,SE,124,0.0,-999.0,95,-99.99,,,-99.99,,2013-03-31 14:02:00,
2013-03-31 07:11:00,52.0,51.0,30.04,SE,124,0.0,-999.0,95,-99.99,,,-99.99,,2013-03-31 14:11:00,
2013-03-31 07:22:00,52.0,51.0,30.04,SE,124,0.0,-999.0,95,-99.99,,,-99.99,,2013-03-31 14:22:00,
2013-03-31 07:32:00,52.0,51.0,30.05,SE,124,0.0,-999.0,95,-99.99,,,-99.99,,2013-03-31 14:32:00,
2013-03-31 07:42:00,52.0,51.0,30.05,SE,124,0.0,-999.0,95,-99.99,,,-99.99,,2013-03-31 14:42:00,
2013-03-31 07:51:00,52.0,51.0,30.05,SE,124,0.0,-999.0,95,-99.99,,,-99.99,,2013-03-31 14:51:00,
2013-03-31 08:02:00,53.0,52.0,30.05,SE,124,0.0,-999.0,95,-99.99,,,-99.99,,2013-03-31 15:02:00,
2013-03-31 08:12:00,53.0,52.0,30.05,SE,124,0.0,-999.0,95,-99.99,,,-99.99,,2013-03-31 15:12:00,
2013-03-31 08:22:00,53.0,52.0,30.06,SE,124,0.0,-999.0,95,-99.99,,,-99.99,,2013-03-31 15:22:00,
2013-03-31 08:33:00,54.0,53.0,30.06,SE,124,0.0,-999.0,95,-99.99,,,-99.99,,2013-03-31 15:33:00,
2013-03-31 08:43:00,54.0,53.0,30.06,SE,124,0.0,-999.0,95,-99.99,,,-99.99,,2013-03-31 15:43:00,
2013-03-31 08:53:00,54.0,53.0,30.06,SE,124,0.0,-999.0,95,-99.99,,,-99.99,,2013-03-31 15:53:00,
2013-03-31 09:02:00,54.0,53.0,30.06,SE,124,0.0,-999.0,95,-99.99,,,-99.99,,2013-03-31 16:02:00,
2013-03-31 09:13:00,54.0,53.0,30.06,SE,124,0.0,-999.0,95,-99.99,,,-99.99,,2013-03-31 16:13:00,
2013-03-31 09:22:00,54.0,53.0,30.06,SE,124,0.0,-999.0,95,-99.99,,,-99.99,,2013-03-31 16:22:00,
2013-03-31 09:32:00,54.0,52.0,30.06,SE,124,0.0,-999.0,94,-99.99,,,-99.99,,2013-03-31 16:32:00,
2013-03-31 09:42:00,54.0,52.0,30.06,SE,124,0.0,-999.0,94,-99.99,,,-99.99,,2013-03-31 16:42:00,
2013-03-31 09:52:00,54.0,52.0,30.06,SE,124,0.0,-999.0,94,-99.99,,,-99.99,,2013-03-31 16:52:00,
2013-03-31 10:02:00,55.0,53.0,30.06,SE,124,0.0,-999.0,93,-99.99,,,-99.99,,2013-03-31 17:02:00,
2013-03-31 10:12:00,55.0,53.0,30.06,SE,124,0.0,-999.0,93,-99.99,,,-99.99,,2013-03-31 17:12:00,
2013-03-31 10:22:00,56.0,54.0,30.06,ESE,121,1.0,-999.0,92,-99.99,,,-99.99,,2013-03-31 17:22:00,
2013-03-31 10:32:00,58.0,54.0,30.06,ESE,121,0.0,-999.0,88,-99.99,,,-99.99,,2013-03-31 17:32:00,
2013-03-31 10:42:00,58.0,54.0,30.06,ESE,121,0.0,-999.0,88,-99.99,,,-99.99,,2013-03-31 17:42:00,
2013-03-31 10:52:00,59.0,55.0,30.06,ESE,121,1.0,-999.0,86,-99.99,,,-99.99,,2013-03-31 17:52:00,
2013-03-31 11:02:00,58.0,54.0,30.07,SE,136,2.0,-999.0,85,-99.99,,,-99.99,,2013-03-31 18:02:00,
2013-03-31 11:12:00,58.0,54.0,30.07,SE,136,2.0,-999.0,85,-99.99,,,-99.99,,2013-03-31 18:12:00,
2013-03-31 11:22:00,60.0,54.0,30.07,SE,136,2.0,-999.0,82,-99.99,,,-99.99,,2013-03-31 18:22:00,
2013-03-31 11:32:00,60.0,53.0,30.06,SE,135,1.0,-999.0,79,-99.99,,,-99.99,,2013-03-31 18:32:00,
2013-03-31 11:42:00,60.0,53.0,30.06,SE,135,1.0,-999.0,79,-99.99,,,-99.99,,2013-03-31 18:42:00,
2013-03-31 11:52:00,61.0,54.0,30.06,SE,136,2.0,-999.0,77,-99.99,,,-99.99,,2013-03-31 18:52:00,
2013-03-31 12:02:00,61.0,54.0,30.06,SE,132,2.0,-999.0,78,-99.99,,,-99.99,,2013-03-31 19:02:00,
2013-03-31 12:12:00,61.0,54.0,30.06,SE,132,2.0,-999.0,78,-99.99,,,-99.99,,2013-03-31 19:12:00,
2013-03-31 12:22:00,59.0,54.0,30.06,SE,134,1.0,-999.0,83,-99.99,,,-99.99,,2013-03-31 19:22:00,
2013-03-31 12:32:00,59.0,55.0,30.06,SE,134,0.0,-999.0,86,-99.99,,,-99.99,,2013-03-31 19:32:00,
2013-03-31 12:42:00,59.0,55.0,30.06,SE,134,0.0,-999.0,86,-99.99,,,-99.99,,2013-03-31 19:42:00,
2013-03-31 12:53:00,58.0,54.0,30.06,East,81,0.0,-999.0,87,-99.99,,,-99.99,,2013-03-31 19:53:00,
2013-03-31 13:02:00,57.0,54.0,30.06,ESE,109,0.0,-999.0,89,-99.99,,,-99.99,,2013-03-31 20:02:00,
2013-03-31 13:12:00,57.0,54.0,30.06,ESE,109,0.0,-999.0,89,-99.99,,,-99.99,,2013-03-31 20:12:00,
2013-03-31 13:22:00,57.0,54.0,30.05,ESE,109,0.0,-999.0,90,-99.99,,,-99.99,,2013-03-31 20:22:00,
2013-03-31 13:32:00,57.0,54.0,30.05,ESE,109,0.0,-999.0,91,-99.99,,,-99.99,,2013-03-31 20:32:00,
2013-03-31 13:42:00,57.0,54.0,30.05,ESE,109,0.0,-999.0,91,-99.99,,,-99.99,,2013-03-31 20:42:00,
2013-03-31 13:52:00,58.0,56.0,30.04,SE,128,0.0,-999.0,92,-99.99,,,-99.99,,2013-03-31 20:52:00,
2013-03-31 14:02:00,58.0,55.0,30.04,SE,128,0.0,-999.0,91,-99.99,,,-99.99,,2013-03-31 21:02:00,
2013-03-31 14:22:00,58.0,55.0,30.03,SE,128,0.0,-999.0,90,-99.99,,,-99.99,,2013-03-31 21:22:00,
2013-03-31 14:33:00,57.0,54.0,30.03,NW,324,1.0,-999.0,91,-99.99,,,-99.99,,2013-03-31 21:33:00,
2013-03-31 14:43:00,57.0,54.0,30.03,NW,324,1.0,-999.0,91,-99.99,,,-99.99,,2013-03-31 21:43:00,
2013-03-31 14:53:00,56.0,53.0,30.03,NNW,344,1.0,-999.0,90,-99.99,,,-99.99,,2013-03-31 21:53:00,
2013-03-31 15:03:00,55.0,52.0,30.03,NNW,348,0.0,-999.0,90,-99.99,,,-99.99,,2013-03-31 22:03:00,
2013-03-31 15:13:00,55.0,52.0,30.03,NNW,348,0.0,-999.0,90,-99.99,,,-99.99,,2013-03-31 22:13:00,
2013-03-31 15:23:00,55.0,52.0,30.03,NNW,348,0.0,-999.0,91,-99.99,,,-99.99,,2013-03-31 22:23:00,
2013-03-31 15:33:00,55.0,53.0,30.03,North,349,0.0,-999.0,92,-99.99,,,-99.99,,2013-03-31 22:33:00,
2013-03-31 15:42:00,55.0,53.0,30.03,North,349,0.0,-999.0,92,-99.99,,,-99.99,,2013-03-31 22:42:00,
2013-03-31 15:52:00,55.0,53.0,30.03,SE,134,1.0,-999.0,92,-99.99,,,-99.99,,2013-03-31 22:52:00,
2013-03-31 16:02:00,56.0,54.0,30.03,SSE,148,0.0,-999.0,93,-99.99,,,-99.99,,2013-03-31 23:02:00,
2013-03-31 16:12:00,56.0,54.0,30.03,SSE,148,0.0,-999.0,93,-99.99,,,-99.99,,2013-03-31 23:12:00,
2013-03-31 16:22:00,56.0,54.0,30.03,SSE,148,0.0,-999.0,92,-99.99,,,-99.99,,2013-03-31 23:22:00,
2013-03-31 16:32:00,56.0,54.0,30.03,SSE,148,0.0,-999.0,92,-99.99,,,-99.99,,2013-03-31 23:32:00,
2013-03-31 16:42:00,56.0,54.0,30.03,SSE,148,0.0,-999.0,92,-99.99,,,-99.99,,2013-03-31 23:42:00,
2013-03-31 16:52:00,56.0,53.0,30.03,SE,130,1.0,-999.0,91,-99.99,,,-99.99,,2013-03-31 23:52:00,
2013-03-31 17:02:00,56.0,53.0,30.03,SE,130,1.0,-999.0,91,-99.99,,,-99.99,,2013-04-01 00:02:00,
2013-03-31 17:12:00,56.0,53.0,30.03,SE,130,1.0,-999.0,91,-99.99,,,-99.99,,2013-04-01 00:12:00,
2013-03-31 17:22:00,56.0,53.0,30.02,SW,231,1.0,-999.0,89,-99.99,,,-99.99,,2013-04-01 00:22:00,
2013-03-31 17:32:00,56.0,53.0,30.02,SE,140,1.0,-999.0,90,-99.99,,,-99.99,,2013-04-01 00:32:00,
2013-03-31 17:42:00,56.0,53.0,30.02,SE,140,1.0,-999.0,90,-99.99,,,-99.99,,2013-04-01 00:42:00,
2013-03-31 18:02:00,56.0,52.0,30.02,ESE,121,0.0,-999.0,88,-99.99,,,-99.99,,2013-04-01 01:02:00,
2013-03-31 18:12:00,56.0,52.0,30.02,ESE,121,0.0,-999.0,88,-99.99,,,-99.99,,2013-04-01 01:12:00,
2013-03-31 18:22:00,56.0,52.0,30.02,ESE,121,0.0,-999.0,88,-99.99,,,-99.99,,2013-04-01 01:22:00,
2013-03-31 18:32:00,56.0,53.0,30.02,ESE,121,0.0,-999.0,89,-99.99,,,-99.99,,2013-04-01 01:32:00,
2013-03-31 18:42:00,56.0,53.0,30.02,ESE,121,0.0,-999.0,89,-99.99,,,-99.99,,2013-04-01 01:42:00,
2013-03-31 18:52:00,56.0,53.0,30.02,ESE,121,0.0,-999.0,90,-99.99,,,-99.99,,2013-04-01 01:52:00,
2013-03-31 19:02:00,56.0,53.0,30.02,ESE,121,0.0,-999.0,90,-99.99,,,-99.99,,2013-04-01 02:02:00,
2013-03-31 19:12:00,56.0,53.0,30.02,ESE,121,0.0,-999.0,90,-99.99,,,-99.99,,2013-04-01 02:12:00,
2013-03-31 19:22:00,56.0,53.0,30.02,ESE,121,0.0,-999.0,91,-99.99,,,-99.99,,2013-04-01 02:22:00,
2013-03-31 19:32:00,56.0,53.0,30.02,ESE,121,0.0,-999.0,91,-99.99,,,-99.99,,2013-04-01 02:32:00,
2013-03-31 19:42:00,56.0,53.0,30.02,ESE,121,0.0,-999.0,91,-99.99,,,-99.99,,2013-04-01 02:42:00,
2013-03-31 19:52:00,56.0,53.0,30.02,ESE,121,0.0,-999.0,91,-99.99,,,-99.99,,2013-04-01 02:52:00,
2013-03-31 20:02:00,55.0,52.0,30.02,ESE,121,0.0,-999.0,91,-99.99,,,-99.99,,2013-04-01 03:02:00,
2013-03-31 20:12:00,55.0,52.0,30.02,ESE,121,0.0,-999.0,91,-99.99,,,-99.99,,2013-04-01 03:12:00,
2013-03-31 20:22:00,55.0,53.0,30.02,ESE,121,0.0,-999.0,92,-99.99,,,-99.99,,2013-04-01 03:22:00,
2013-03-31 20:33:00,55.0,53.0,30.03,ESE,121,0.0,-999.0,93,-99.99,,,-99.99,,2013-04-01 03:33:00,
2013-03-31 20:43:00,55.0,53.0,30.03,ESE,121,0.0,-999.0,93,-99.99,,,-99.99,,2013-04-01 03:43:00,
2013-03-31 20:52:00,55.0,53.0,30.02,ESE,121,0.0,-999.0,93,-99.99,,,-99.99,,2013-04-01 03:52:00,
2013-03-31 21:02:00,55.0,53.0,30.02,ESE,121,0.0,-999.0,93,-99.99,,,-99.99,,2013-04-01 04:02:00,
2013-03-31 21:13:00,55.0,53.0,30.02,ESE,121,0.0,-999.0,93,-99.99,,,-99.99,,2013-04-01 04:13:00,
2013-03-31 21:23:00,55.0,53.0,30.03,ESE,121,0.0,-999.0,93,-99.99,,,-99.99,,2013-04-01 04:23:00,
2013-03-31 21:32:00,54.0,52.0,30.03,ESE,121,0.0,-999.0,93,-99.99,,,-99.99,,2013-04-01 04:32:00,
2013-03-31 21:43:00,54.0,52.0,30.03,ESE,121,0.0,-999.0,93,-99.99,,,-99.99,,2013-04-01 04:43:00,
2013-03-31 21:52:00,54.0,52.0,30.03,ESE,121,0.0,-999.0,93,-99.99,,,-99.99,,2013-04-01 04:52:00,
2013-03-31 22:02:00,53.0,51.0,30.04,ESE,121,0.0,-999.0,93,-99.99,,,-99.99,,2013-04-01 05:02:00,
2013-03-31 22:12:00,53.0,51.0,30.04,ESE,121,0.0,-999.0,93,-99.99,,,-99.99,,2013-04-01 05:12:00,
2013-03-31 22:22:00,53.0,51.0,30.04,ESE,121,0.0,-999.0,93,-99.99,,,-99.99,,2013-04-01 05:22:00,
2013-03-31 22:32:00,52.0,50.0,30.04,ESE,121,0.0,-999.0,94,-99.99,,,-99.99,,2013-04-01 05:32:00,
2013-03-31 22:42:00,52.0,50.0,30.04,ESE,121,0.0,-999.0,94,-99.99,,,-99.99,,2013-04-01 05:42:00,
2013-03-31 22:52:00,52.0,50.0,30.05,ESE,121,0.0,-999.0,93,-99.99,,,-99.99,,2013-04-01 05:52:00,
2013-03-31 23:02:00,52.0,50.0,30.05,ESE,121,0.0,-999.0,94,-99.99,,,-99.99,,2013-04-01 06:02:00,
2013-03-31 23:12:00,52.0,50.0,30.05,ESE,121,0.0,-999.0,94,-99.99,,,-99.99,,2013-04-01 06:12:00,
2013-03-31 23:22:00,51.0,49.0,30.05,ESE,121,0.0,-999.0,94,-99.99,,,-99.99,,2013-04-01 06:22:00,
2013-03-31 23:33:00,51.0,49.0,30.05,ESE,121,0.0,-999.0,94,-99.99,,,-99.99,,2013-04-01 06:33:00,
2013-03-31 23:42:00,51.0,49.0,30.05,ESE,121,0.0,-999.0,94,-99.99,,,-99.99,,2013-04-01 06:42:00,
2013-03-31 23:52:00,51.0,49.0,30.05,ESE,121,0.0,-999.0,94,-99.99,,,-99.99,,2013-04-01 06:52:00,